| time (UTC) | temp C | wind direction | speed KPH | gust KPH | rain 1hr cm | rain 24hr cm | rain mn cm | humidity % | barometer mb |
| 20260508145119 | 15 | 268 | 0.0 | 0.0 | 0.00 | 0.00 | 0.00 | 49 | 1020.0 |
| 20260508144617 | 15 | 263 | 1.6 | 1.6 | 0.00 | 0.00 | 0.00 | 51 | 1020.1 |
| 20260508144115 | 15 | 252 | 0.0 | 0.0 | 0.00 | 0.00 | 0.00 | 52 | 1020.1 |
| 20260508143612 | 14 | 253 | 3.2 | 3.2 | 0.00 | 0.00 | 0.00 | 50 | 1020.1 |
| 20260508143109 | 13 | 286 | 0.0 | 0.0 | 0.00 | 0.00 | 0.00 | 57 | 1020.0 |
| 20260508142605 | 13 | 189 | 1.6 | 1.6 | 0.00 | 0.00 | 0.00 | 58 | 1019.9 |
| 20260508142102 | 13 | 270 | 1.6 | 1.6 | 0.00 | 0.00 | 0.00 | 60 | 1020.0 |
| 20260508141559 | 13 | 275 | 0.0 | 0.0 | 0.00 | 0.00 | 0.00 | 63 | 1020.1 |
| 20260508141056 | 13 | 250 | 0.0 | 0.0 | 0.00 | 0.00 | 0.00 | 74 | 1020.2 |
| 20260508140553 | 12 | 256 | 0.0 | 0.0 | 0.00 | 0.00 | 0.00 | 66 | 1019.9 |
| 20260508140050 | 12 | 285 | 0.0 | 0.0 | 0.00 | 0.00 | 0.00 | 75 | 1020.0 |
| 20260508135545 | 12 | 276 | 0.0 | 0.0 | 0.00 | 0.00 | 0.00 | 67 | 1020.2 |
| 20260508135042 | 12 | 271 | 0.0 | 0.0 | 0.00 | 0.00 | 0.00 | 72 | 1020.1 |
| 20260508134538 | 12 | 279 | 0.0 | 0.0 | 0.00 | 0.00 | 0.00 | 78 | 1019.9 |
| 20260508134036 | 11 | 266 | 0.0 | 0.0 | 0.00 | 0.00 | 0.00 | 79 | 1020.0 |
| 20260508133532 | 11 | 271 | 0.0 | 0.0 | 0.00 | 0.00 | 0.00 | 79 | 1019.7 |
| 20260508133030 | 11 | 257 | 0.0 | 0.0 | 0.00 | 0.00 | 0.00 | 71 | 1019.7 |
| 20260508132528 | 11 | 277 | 0.0 | 0.0 | 0.00 | 0.00 | 0.00 | 73 | 1019.8 |
| 20260508132024 | 11 | 279 | 0.0 | 0.0 | 0.00 | 0.00 | 0.00 | 78 | 1019.9 |
| 20260508131519 | 11 | 271 | 0.0 | 0.0 | 0.00 | 0.00 | 0.00 | 78 | 1019.8 |
| 20260508131016 | 11 | 279 | 0.0 | 0.0 | 0.00 | 0.00 | 0.00 | 78 | 1019.7 |
| 20260508130514 | 10 | 267 | 0.0 | 0.0 | 0.00 | 0.00 | 0.00 | 77 | 1019.8 |
| 20260508130009 | 10 | 275 | 0.0 | 0.0 | 0.00 | 0.00 | 0.00 | 80 | 1019.7 |
| 20260508125505 | 10 | 262 | 0.0 | 0.0 | 0.00 | 0.00 | 0.00 | 83 | 1019.9 |
| 20260508125003 | 10 | 272 | 0.0 | 0.0 | 0.00 | 0.00 | 0.00 | 85 | 1019.8 |
| 20260508124501 | 10 | 264 | 0.0 | 0.0 | 0.00 | 0.00 | 0.00 | 88 | 1019.7 |
| 20260508123958 | 9 | 256 | 0.0 | 0.0 | 0.00 | 0.00 | 0.00 | 89 | 1019.7 |
| 20260508123456 | 8 | 255 | 0.0 | 0.0 | 0.00 | 0.00 | 0.00 | 90 | 1019.8 |
| 20260508122952 | 8 | 273 | 0.0 | 0.0 | 0.00 | 0.00 | 0.00 | 94 | 1019.8 |
| 20260508122449 | 8 | 274 | 0.0 | 0.0 | 0.00 | 0.00 | 0.00 | 95 | 1019.9 |
| 20260508121946 | 7 | 279 | 0.0 | 0.0 | 0.00 | 0.00 | 0.00 | 95 | 1019.6 |
| 20260508121444 | 7 | 279 | 0.0 | 0.0 | 0.00 | 0.00 | 0.00 | 96 | 1019.6 |
| 20260508120942 | 7 | 279 | 0.0 | 0.0 | 0.00 | 0.00 | 0.00 | 96 | 1019.6 |
| 20260508120440 | 7 | 256 | 0.0 | 0.0 | 0.00 | 0.00 | 0.00 | 96 | 1019.5 |
| 20260508115937 | 6 | 256 | 0.0 | 0.0 | 0.00 | 0.00 | 0.00 | 96 | 1019.7 |
| 20260508115435 | 6 | 235 | 0.0 | 0.0 | 0.00 | 0.00 | 0.00 | 97 | 1019.4 |
| 20260508114931 | 6 | 252 | 0.0 | 0.0 | 0.00 | 0.00 | 0.00 | 98 | 1019.2 |
| 20260508114428 | 6 | 259 | 0.0 | 0.0 | 0.00 | 0.00 | 0.00 | 98 | 1019.1 |
| 20260508113925 | 6 | 260 | 0.0 | 0.0 | 0.00 | 0.00 | 0.00 | 98 | 1018.9 |
| 20260508113423 | 6 | 261 | 0.0 | 0.0 | 0.00 | 0.00 | 0.00 | 98 | 1019.1 |
| 20260508112920 | 5 | 279 | 0.0 | 0.0 | 0.00 | 0.00 | 0.00 | 98 | 1019.0 |
| 20260508112416 | 5 | 297 | 0.0 | 0.0 | 0.00 | 0.00 | 0.00 | 98 | 1018.9 |
| 20260508111913 | 5 | 299 | 0.0 | 0.0 | 0.00 | 0.00 | 0.00 | 98 | 1018.9 |
| 20260508111410 | 5 | 265 | 0.0 | 0.0 | 0.00 | 0.00 | 0.00 | 98 | 1018.8 |
| 20260508110907 | 5 | 280 | 0.0 | 0.0 | 0.00 | 0.00 | 0.00 | 98 | 1018.5 |
| 20260508110405 | 5 | 264 | 0.0 | 0.0 | 0.00 | 0.00 | 0.00 | 98 | 1018.5 |
| 20260508105904 | 5 | 307 | 0.0 | 0.0 | 0.00 | 0.00 | 0.00 | 97 | 1018.4 |
| 20260508105401 | 5 | 256 | 0.0 | 0.0 | 0.00 | 0.00 | 0.00 | 98 | 1018.3 |
| 20260508104858 | 6 | 254 | 0.0 | 0.0 | 0.00 | 0.00 | 0.00 | 98 | 1018.3 |
| 20260508104355 | 5 | 267 | 0.0 | 0.0 | 0.00 | 0.00 | 0.00 | 98 | 1018.2 |
| 20260508103853 | 5 | 256 | 0.0 | 0.0 | 0.00 | 0.00 | 0.00 | 98 | 1018.3 |
| 20260508103349 | 5 | 260 | 0.0 | 0.0 | 0.00 | 0.00 | 0.00 | 98 | 1018.1 |
| 20260508102847 | 5 | 267 | 0.0 | 0.0 | 0.00 | 0.00 | 0.00 | 98 | 1018.0 |
| 20260508102345 | 5 | 269 | 0.0 | 0.0 | 0.00 | 0.00 | 0.00 | 98 | 1017.9 |
| 20260508101842 | 5 | 259 | 0.0 | 0.0 | 0.00 | 0.00 | 0.00 | 98 | 1017.8 |
| 20260508101339 | 5 | 257 | 0.0 | 0.0 | 0.00 | 0.00 | 0.00 | 98 | 1017.7 |
| 20260508100837 | 5 | 253 | 0.0 | 0.0 | 0.00 | 0.00 | 0.00 | 98 | 1017.8 |
| 20260508100335 | 5 | 263 | 0.0 | 0.0 | 0.00 | 0.00 | 0.00 | 97 | 1017.8 |
| 20260508095830 | 5 | 263 | 0.0 | 0.0 | 0.00 | 0.00 | 0.00 | 97 | 1017.6 |
| 20260508095328 | 5 | 17 | 0.0 | 0.0 | 0.00 | 0.00 | 0.00 | 97 | 1017.7 |
| 20260508094825 | 5 | 42 | 0.0 | 0.0 | 0.00 | 0.00 | 0.00 | 97 | 1017.7 |
| 20260508094322 | 5 | 61 | 0.0 | 0.0 | 0.00 | 0.00 | 0.00 | 97 | 1017.6 |
| 20260508093819 | 6 | 65 | 0.0 | 0.0 | 0.00 | 0.00 | 0.00 | 96 | 1017.5 |
| 20260508093317 | 6 | 308 | 0.0 | 0.0 | 0.00 | 0.00 | 0.00 | 96 | 1017.3 |
| 20260508092814 | 6 | 272 | 0.0 | 0.0 | 0.00 | 0.00 | 0.00 | 96 | 1017.1 |
| 20260508092314 | 6 | 260 | 0.0 | 0.0 | 0.00 | 0.00 | 0.00 | 96 | 1017.2 |
| 20260508091810 | 6 | 280 | 0.0 | 0.0 | 0.00 | 0.00 | 0.00 | 96 | 1017.4 |
| 20260508091306 | 6 | 257 | 0.0 | 0.0 | 0.00 | 0.00 | 0.00 | 96 | 1017.2 |
| 20260508090804 | 6 | 259 | 0.0 | 0.0 | 0.00 | 0.00 | 0.00 | 96 | 1016.9 |
| 20260508090302 | 6 | 290 | 0.0 | 0.0 | 0.00 | 0.00 | 0.00 | 96 | 1017.2 |
| 20260508085757 | 6 | 249 | 0.0 | 0.0 | 0.00 | 0.00 | 0.00 | 95 | 1017.4 |
| 20260508085254 | 7 | 260 | 0.0 | 0.0 | 0.00 | 0.00 | 0.00 | 95 | 1017.0 |
| 20260508084750 | 7 | 245 | 0.0 | 0.0 | 0.00 | 0.00 | 0.00 | 94 | 1017.0 |
| 20260508084248 | 7 | 294 | 0.0 | 0.0 | 0.00 | 0.00 | 0.00 | 94 | 1017.1 |
| 20260508083745 | 7 | 262 | 0.0 | 0.0 | 0.00 | 0.00 | 0.00 | 93 | 1016.8 |
| 20260508083242 | 7 | 284 | 0.0 | 0.0 | 0.00 | 0.00 | 0.00 | 92 | 1017.1 |
| 20260508082737 | 8 | 286 | 0.0 | 0.0 | 0.00 | 0.00 | 0.00 | 91 | 1016.8 |
| 20260508082235 | 8 | 267 | 0.0 | 0.0 | 0.00 | 0.00 | 0.00 | 89 | 1016.9 |
| 20260508081732 | 8 | 261 | 0.0 | 0.0 | 0.00 | 0.00 | 0.00 | 87 | 1016.7 |
| 20260508081229 | 8 | 269 | 0.0 | 0.0 | 0.00 | 0.00 | 0.00 | 87 | 1017.1 |
| 20260508080726 | 8 | 268 | 0.0 | 0.0 | 0.00 | 0.00 | 0.00 | 87 | 1016.8 |
| 20260508080224 | 8 | 258 | 0.0 | 0.0 | 0.00 | 0.00 | 0.00 | 88 | 1016.7 |
| 20260508075720 | 8 | 276 | 0.0 | 0.0 | 0.00 | 0.00 | 0.00 | 88 | 1016.7 |
| 20260508075217 | 8 | 264 | 0.0 | 0.0 | 0.00 | 0.00 | 0.00 | 88 | 1016.8 |
| 20260508074715 | 8 | 262 | 0.0 | 0.0 | 0.00 | 0.00 | 0.00 | 91 | 1016.4 |
| 20260508074212 | 8 | 285 | 0.0 | 0.0 | 0.00 | 0.00 | 0.00 | 91 | 1016.6 |
| 20260508073708 | 8 | 263 | 0.0 | 0.0 | 0.00 | 0.00 | 0.00 | 90 | 1016.7 |
| 20260508073207 | 9 | 262 | 0.0 | 0.0 | 0.00 | 0.00 | 0.00 | 90 | 1016.6 |
| 20260508072702 | 9 | 257 | 0.0 | 0.0 | 0.00 | 0.00 | 0.00 | 88 | 1016.4 |
| 20260508072159 | 9 | 275 | 0.0 | 0.0 | 0.00 | 0.00 | 0.00 | 87 | 1016.6 |
| 20260508071657 | 9 | 258 | 0.0 | 0.0 | 0.00 | 0.00 | 0.00 | 89 | 1016.6 |
| 20260508071155 | 9 | 262 | 0.0 | 0.0 | 0.00 | 0.00 | 0.00 | 88 | 1016.4 |
| 20260508070652 | 9 | 259 | 0.0 | 0.0 | 0.00 | 0.00 | 0.00 | 89 | 1016.4 |
| 20260508070151 | 9 | 266 | 0.0 | 0.0 | 0.00 | 0.00 | 0.00 | 89 | 1016.3 |
| 20260508065647 | 9 | 264 | 0.0 | 0.0 | 0.00 | 0.00 | 0.00 | 90 | 1016.3 |
| 20260508065145 | 8 | 270 | 0.0 | 0.0 | 0.00 | 0.00 | 0.00 | 91 | 1016.4 |
| 20260508064643 | 8 | 272 | 0.0 | 0.0 | 0.00 | 0.00 | 0.00 | 91 | 1016.3 |
| 20260508064141 | 8 | 271 | 0.0 | 0.0 | 0.00 | 0.00 | 0.00 | 92 | 1016.4 |
| 20260508063638 | 8 | 250 | 0.0 | 0.0 | 0.00 | 0.00 | 0.00 | 92 | 1016.3 |
| 20260508063136 | 8 | 263 | 0.0 | 0.0 | 0.00 | 0.00 | 0.00 | 93 | 1016.6 |
| 20260508062633 | 8 | 273 | 0.0 | 0.0 | 0.00 | 0.00 | 0.00 | 93 | 1016.2 |
| 20260508062129 | 8 | 267 | 0.0 | 0.0 | 0.00 | 0.00 | 0.00 | 93 | 1016.3 |
| 20260508061627 | 8 | 273 | 0.0 | 0.0 | 0.00 | 0.00 | 0.00 | 93 | 1016.6 |
| 20260508061125 | 8 | 272 | 0.0 | 0.0 | 0.00 | 0.00 | 0.00 | 94 | 1016.4 |
| 20260508060621 | 8 | 269 | 0.0 | 0.0 | 0.00 | 0.00 | 0.00 | 94 | 1016.1 |
| 20260508060118 | 8 | 280 | 0.0 | 0.0 | 0.00 | 0.00 | 0.00 | 94 | 1016.6 |
| 20260508055614 | 8 | 353 | 0.0 | 0.0 | 0.00 | 0.00 | 0.00 | 93 | 1016.4 |
| 20260508055111 | 8 | 337 | 0.0 | 0.0 | 0.00 | 0.00 | 0.00 | 92 | 1016.6 |
| 20260508054607 | 8 | 310 | 0.0 | 0.0 | 0.00 | 0.00 | 0.00 | 91 | 1016.4 |
| 20260508054105 | 9 | 310 | 0.0 | 0.0 | 0.00 | 0.00 | 0.00 | 90 | 1016.1 |
| 20260508053601 | 10 | 279 | 0.0 | 0.0 | 0.00 | 0.00 | 0.00 | 89 | 1016.1 |
| 20260508053059 | 10 | 260 | 0.0 | 0.0 | 0.00 | 0.00 | 0.00 | 89 | 1016.3 |
| 20260508052557 | 10 | 264 | 0.0 | 0.0 | 0.00 | 0.00 | 0.00 | 88 | 1016.4 |
| 20260508052054 | 10 | 254 | 0.0 | 0.0 | 0.00 | 0.00 | 0.00 | 88 | 1016.2 |
| 20260508051549 | 10 | 265 | 0.0 | 0.0 | 0.00 | 0.00 | 0.00 | 87 | 1016.0 |
| 20260508051045 | 10 | 249 | 1.6 | 1.6 | 0.00 | 0.00 | 0.00 | 85 | 1016.2 |
| 20260508050541 | 10 | 257 | 0.0 | 0.0 | 0.00 | 0.00 | 0.00 | 84 | 1015.9 |
| 20260508050039 | 10 | 227 | 0.0 | 0.0 | 0.00 | 0.00 | 0.00 | 82 | 1016.0 |
| 20260508045535 | 10 | 254 | 0.0 | 0.0 | 0.00 | 0.00 | 0.00 | 81 | 1016.1 |
| 20260508045033 | 10 | 250 | 0.0 | 0.0 | 0.00 | 0.00 | 0.00 | 81 | 1015.9 |
| 20260508044530 | 10 | 258 | 0.0 | 0.0 | 0.00 | 0.00 | 0.00 | 81 | 1015.9 |
| 20260508044026 | 10 | 266 | 0.0 | 0.0 | 0.00 | 0.00 | 0.00 | 81 | 1016.2 |
| 20260508043522 | 10 | 252 | 0.0 | 0.0 | 0.00 | 0.00 | 0.00 | 82 | 1015.9 |
| 20260508043020 | 11 | 274 | 0.0 | 0.0 | 0.00 | 0.00 | 0.00 | 82 | 1016.1 |
| 20260508042516 | 11 | 272 | 0.0 | 0.0 | 0.00 | 0.00 | 0.00 | 81 | 1015.9 |
| 20260508042014 | 11 | 263 | 0.0 | 0.0 | 0.00 | 0.00 | 0.00 | 81 | 1015.9 |
| 20260508041510 | 11 | 266 | 0.0 | 0.0 | 0.00 | 0.00 | 0.00 | 81 | 1015.8 |
| 20260508041007 | 11 | 274 | 0.0 | 0.0 | 0.00 | 0.00 | 0.00 | 81 | 1015.9 |
| 20260508040504 | 11 | 253 | 0.0 | 0.0 | 0.00 | 0.00 | 0.00 | 82 | 1015.6 |
| 20260508040001 | 11 | 265 | 0.0 | 0.0 | 0.00 | 0.18 | 0.18 | 81 | 1015.6 |
| 20260508035458 | 11 | 273 | 0.0 | 0.0 | 0.00 | 0.18 | 0.18 | 83 | 1015.7 |
| 20260508034955 | 11 | 279 | 0.0 | 0.0 | 0.00 | 0.18 | 0.18 | 85 | 1015.7 |
| 20260508034452 | 11 | 255 | 0.0 | 0.0 | 0.00 | 0.18 | 0.18 | 80 | 1015.6 |
| 20260508033949 | 11 | 276 | 0.0 | 0.0 | 0.00 | 0.18 | 0.18 | 80 | 1015.7 |
| 20260508033447 | 11 | 260 | 0.0 | 0.0 | 0.00 | 0.18 | 0.18 | 80 | 1015.6 |
| 20260508032944 | 11 | 260 | 0.0 | 0.0 | 0.00 | 0.18 | 0.18 | 79 | 1015.5 |
| 20260508032436 | 11 | 270 | 0.0 | 0.0 | 0.00 | 0.18 | 0.18 | 78 | 1015.5 |
| 20260508031932 | 11 | 267 | 0.0 | 0.0 | 0.00 | 0.18 | 0.18 | 77 | 1015.6 |
| 20260508031430 | 12 | 271 | 0.0 | 0.0 | 0.00 | 0.18 | 0.18 | 76 | 1015.5 |
| 20260508030925 | 12 | 272 | 0.0 | 0.0 | 0.00 | 0.18 | 0.18 | 76 | 1015.6 |
| 20260508030423 | 12 | 248 | 0.0 | 0.0 | 0.00 | 0.18 | 0.18 | 76 | 1015.5 |
| 20260508025920 | 12 | 285 | 0.0 | 0.0 | 0.00 | 0.18 | 0.18 | 78 | 1015.3 |
| 20260508025416 | 12 | 256 | 0.0 | 0.0 | 0.00 | 0.18 | 0.18 | 76 | 1015.3 |
| 20260508024913 | 12 | 264 | 0.0 | 0.0 | 0.00 | 0.18 | 0.18 | 75 | 1015.0 |
| 20260508024410 | 12 | 240 | 0.0 | 0.0 | 0.00 | 0.18 | 0.18 | 74 | 1015.2 |
| 20260508023907 | 12 | 248 | 0.0 | 1.6 | 0.00 | 0.18 | 0.18 | 74 | 1015.0 |
| 20260508023404 | 12 | 250 | 1.6 | 1.6 | 0.00 | 0.18 | 0.18 | 73 | 1015.1 |
| 20260508022901 | 12 | 242 | 0.0 | 0.0 | 0.00 | 0.18 | 0.18 | 74 | 1015.2 |
| 20260508022356 | 12 | 240 | 0.0 | 1.6 | 0.00 | 0.18 | 0.18 | 75 | 1015.0 |
| 20260508021853 | 12 | 247 | 0.0 | 0.0 | 0.00 | 0.18 | 0.18 | 74 | 1015.0 |
| 20260508021349 | 12 | 228 | 3.2 | 3.2 | 0.00 | 0.18 | 0.18 | 72 | 1014.8 |
| 20260508020845 | 12 | 240 | 0.0 | 0.0 | 0.00 | 0.18 | 0.18 | 75 | 1014.7 |
| 20260508020343 | 12 | 230 | 0.0 | 0.0 | 0.00 | 0.18 | 0.18 | 75 | 1014.5 |
| 20260508015840 | 12 | 245 | 0.0 | 0.0 | 0.00 | 0.18 | 0.18 | 80 | 1014.7 |
| 20260508015338 | 11 | 256 | 0.0 | 0.0 | 0.00 | 0.18 | 0.18 | 78 | 1014.9 |
| 20260508014834 | 11 | 262 | 0.0 | 0.0 | 0.00 | 0.18 | 0.18 | 80 | 1014.5 |
| 20260508014331 | 11 | 264 | 0.0 | 0.0 | 0.00 | 0.18 | 0.18 | 80 | 1014.6 |
| 20260508013826 | 11 | 258 | 0.0 | 1.6 | 0.00 | 0.18 | 0.18 | 82 | 1014.3 |
| 20260508013323 | 11 | 253 | 0.0 | 0.0 | 0.00 | 0.18 | 0.18 | 82 | 1014.1 |
| 20260508012820 | 12 | 320 | 0.0 | 0.0 | 0.00 | 0.18 | 0.18 | 83 | 1014.2 |
| 20260508012317 | 12 | 279 | 0.0 | 0.0 | 0.00 | 0.18 | 0.18 | 81 | 1013.9 |
| 20260508011815 | 12 | 279 | 0.0 | 0.0 | 0.00 | 0.18 | 0.18 | 75 | 1014.1 |
| 20260508011312 | 12 | 277 | 0.0 | 0.0 | 0.00 | 0.18 | 0.18 | 77 | 1014.0 |
| 20260508010809 | 12 | 274 | 0.0 | 0.0 | 0.00 | 0.18 | 0.18 | 78 | 1013.8 |
| 20260508010307 | 13 | 25 | 0.0 | 0.0 | 0.00 | 0.18 | 0.18 | 79 | 1013.4 |
| 20260508005804 | 13 | 276 | 0.0 | 0.0 | 0.00 | 0.18 | 0.18 | 76 | 1013.8 |
| 20260508005301 | 13 | 252 | 0.0 | 0.0 | 0.00 | 0.18 | 0.18 | 71 | 1013.5 |
| 20260508004756 | 13 | 287 | 0.0 | 0.0 | 0.00 | 0.18 | 0.18 | 71 | 1013.3 |
| 20260508004253 | 13 | 256 | 0.0 | 0.0 | 0.00 | 0.18 | 0.18 | 69 | 1013.5 |
| 20260508003749 | 14 | 251 | 0.0 | 0.0 | 0.00 | 0.18 | 0.18 | 71 | 1013.3 |
| 20260508003247 | 14 | 263 | 0.0 | 0.0 | 0.00 | 0.18 | 0.18 | 67 | 1013.4 |
| 20260508002743 | 14 | 257 | 0.0 | 0.0 | 0.00 | 0.18 | 0.18 | 67 | 1013.5 |
| 20260508002241 | 15 | 275 | 0.0 | 0.0 | 0.00 | 0.18 | 0.18 | 67 | 1013.5 |
| 20260508001736 | 15 | 263 | 0.0 | 0.0 | 0.00 | 0.18 | 0.18 | 66 | 1013.5 |
| 20260508001232 | 15 | 247 | 1.6 | 3.2 | 0.00 | 0.18 | 0.18 | 66 | 1013.6 |
| 20260508000729 | 15 | 225 | 4.8 | 8.0 | 0.00 | 0.18 | 0.18 | 66 | 1013.5 |
| 20260508000227 | 15 | 260 | 0.0 | 0.0 | 0.00 | 0.18 | 0.18 | 68 | 1013.4 |
| 20260507235722 | 15 | 63 | 1.6 | 1.6 | 0.00 | 0.18 | 0.18 | 69 | 1013.6 |
| 20260507235220 | 15 | 58 | 1.6 | 3.2 | 0.00 | 0.18 | 0.18 | 67 | 1013.1 |
| 20260507234717 | 15 | 252 | 3.2 | 4.8 | 0.00 | 0.18 | 0.18 | 66 | 1013.4 |
| 20260507234214 | 15 | 11 | 1.6 | 1.6 | 0.00 | 0.18 | 0.18 | 68 | 1013.1 |
| 20260507233710 | 15 | 266 | 4.8 | 4.8 | 0.00 | 0.18 | 0.18 | 68 | 1013.2 |
| 20260507233208 | 15 | 291 | 0.0 | 0.0 | 0.00 | 0.18 | 0.18 | 70 | 1013.2 |
| 20260507232705 | 15 | 36 | 0.0 | 1.6 | 0.00 | 0.18 | 0.18 | 71 | 1013.0 |
| 20260507232202 | 15 | 269 | 0.0 | 0.0 | 0.00 | 0.18 | 0.18 | 70 | 1012.9 |
| 20260507231658 | 15 | 32 | 1.6 | 3.2 | 0.00 | 0.18 | 0.18 | 72 | 1013.0 |
| 20260507231155 | 16 | 333 | 0.0 | 0.0 | 0.00 | 0.18 | 0.18 | 73 | 1012.9 |
| 20260507230652 | 16 | 41 | 0.0 | 1.6 | 0.00 | 0.18 | 0.18 | 72 | 1012.7 |
| 20260507230149 | 16 | 13 | 0.0 | 0.0 | 0.00 | 0.18 | 0.18 | 70 | 1012.7 |
| 20260507225649 | 16 | 230 | 3.2 | 3.2 | 0.00 | 0.18 | 0.18 | 69 | 1012.5 |
| 20260507225146 | 16 | 263 | 4.8 | 8.0 | 0.00 | 0.18 | 0.18 | 71 | 1012.4 |
| 20260507224641 | 16 | 256 | 0.0 | 0.0 | 0.00 | 0.18 | 0.18 | 71 | 1012.3 |
| 20260507224138 | 16 | 240 | 0.0 | 0.0 | 0.00 | 0.18 | 0.18 | 72 | 1012.5 |
| 20260507223634 | 16 | 12 | 0.0 | 0.0 | 0.00 | 0.18 | 0.18 | 75 | 1012.4 |
| 20260507223131 | 16 | 269 | 3.2 | 3.2 | 0.00 | 0.18 | 0.18 | 73 | 1012.2 |
| 20260507222628 | 16 | 56 | 1.6 | 1.6 | 0.00 | 0.18 | 0.18 | 75 | 1012.3 |
| 20260507222124 | 16 | 299 | 0.0 | 0.0 | 0.00 | 0.18 | 0.18 | 76 | 1012.3 |
| 20260507221621 | 16 | 270 | 0.0 | 1.6 | 0.00 | 0.18 | 0.18 | 77 | 1012.2 |
| 20260507221117 | 17 | 325 | 0.0 | 0.0 | 0.00 | 0.18 | 0.18 | 87 | 1012.2 |
| 20260507220614 | 17 | 55 | 0.0 | 1.6 | 0.00 | 0.18 | 0.18 | 85 | 1011.6 |
| 20260507220112 | 17 | 76 | 1.6 | 1.6 | 0.00 | 0.18 | 0.18 | 85 | 1011.8 |
| 20260507215608 | 17 | 340 | 0.0 | 0.0 | 0.00 | 0.18 | 0.18 | 85 | 1011.6 |
| 20260507215106 | 17 | 36 | 1.6 | 1.6 | 0.00 | 0.18 | 0.18 | 85 | 1011.4 |
| 20260507214603 | 17 | 55 | 0.0 | 1.6 | 0.00 | 0.18 | 0.18 | 84 | 1011.5 |
| 20260507214059 | 17 | 62 | 0.0 | 1.6 | 0.00 | 0.18 | 0.18 | 81 | 1011.6 |
| 20260507213555 | 17 | 67 | 3.2 | 3.2 | 0.00 | 0.18 | 0.18 | 81 | 1011.4 |
| 20260507213053 | 18 | 32 | 0.0 | 1.6 | 0.00 | 0.18 | 0.18 | 81 | 1011.1 |
| 20260507212548 | 18 | 337 | 0.0 | 0.0 | 0.00 | 0.18 | 0.18 | 79 | 1011.1 |
| 20260507212046 | 18 | 358 | 1.6 | 1.6 | 0.00 | 0.18 | 0.18 | 79 | 1010.8 |
| 20260507211542 | 18 | 76 | 1.6 | 3.2 | 0.00 | 0.18 | 0.18 | 80 | 1010.8 |
| 20260507211038 | 18 | 6 | 1.6 | 1.6 | 0.00 | 0.18 | 0.18 | 80 | 1010.8 |
| 20260507210536 | 18 | 85 | 3.2 | 3.2 | 0.00 | 0.18 | 0.18 | 79 | 1010.7 |
| 20260507210032 | 18 | 27 | 0.0 | 0.0 | 0.00 | 0.18 | 0.18 | 81 | 1010.6 |
| 20260507205529 | 18 | 42 | 1.6 | 1.6 | 0.00 | 0.18 | 0.18 | 81 | 1010.5 |
| 20260507205025 | 18 | 50 | 1.6 | 3.2 | 0.00 | 0.18 | 0.18 | 80 | 1010.5 |
| 20260507204521 | 18 | 0 | 0.0 | 1.6 | 0.00 | 0.18 | 0.18 | 80 | 1010.4 |
| 20260507204019 | 18 | 79 | 3.2 | 4.8 | 0.00 | 0.18 | 0.18 | 79 | 1010.4 |
| 20260507203517 | 20 | 57 | 3.2 | 4.8 | 0.00 | 0.18 | 0.18 | 77 | 1010.5 |
| 20260507203014 | 20 | 37 | 1.6 | 3.2 | 0.00 | 0.18 | 0.18 | 75 | 1010.4 |
| 20260507202510 | 20 | 14 | 1.6 | 3.2 | 0.00 | 0.18 | 0.18 | 75 | 1010.3 |
| 20260507202006 | 20 | 267 | 0.0 | 0.0 | 0.00 | 0.18 | 0.18 | 75 | 1010.3 |
| 20260507201502 | 20 | 273 | 0.0 | 1.6 | 0.00 | 0.18 | 0.18 | 76 | 1010.1 |
| 20260507200958 | 20 | 54 | 1.6 | 3.2 | 0.00 | 0.18 | 0.18 | 77 | 1010.0 |
| 20260507200454 | 20 | 301 | 0.0 | 1.6 | 0.00 | 0.18 | 0.18 | 77 | 1010.2 |
| 20260507195949 | 20 | 8 | 1.6 | 3.2 | 0.00 | 0.18 | 0.18 | 77 | 1010.3 |
| 20260507195448 | 20 | 294 | 0.0 | 0.0 | 0.00 | 0.18 | 0.18 | 78 | 1010.3 |
| 20260507194945 | 19 | 145 | 0.0 | 1.6 | 0.00 | 0.18 | 0.18 | 79 | 1010.2 |
| 20260507194441 | 19 | 43 | 3.2 | 3.2 | 0.00 | 0.18 | 0.18 | 79 | 1010.4 |
| 20260507193937 | 20 | 299 | 1.6 | 3.2 | 0.00 | 0.18 | 0.18 | 79 | 1010.5 |
| 20260507193434 | 19 | 57 | 3.2 | 3.2 | 0.00 | 0.18 | 0.18 | 79 | 1010.2 |
| 20260507192931 | 18 | 33 | 0.0 | 1.6 | 0.00 | 0.18 | 0.18 | 82 | 1010.5 |
| 20260507192427 | 17 | 286 | 0.0 | 0.0 | 0.00 | 0.18 | 0.18 | 85 | 1010.4 |
| 20260507191924 | 17 | 20 | 1.6 | 3.2 | 0.00 | 0.18 | 0.18 | 83 | 1010.7 |
| 20260507191420 | 17 | 69 | 1.6 | 1.6 | 0.00 | 0.18 | 0.18 | 84 | 1010.6 |
| 20260507190917 | 17 | 328 | 4.8 | 4.8 | 0.00 | 0.18 | 0.18 | 84 | 1010.5 |
| 20260507190415 | 17 | 77 | 1.6 | 3.2 | 0.00 | 0.18 | 0.18 | 85 | 1010.6 |
| 20260507185914 | 17 | 63 | 4.8 | 4.8 | 0.00 | 0.18 | 0.18 | 85 | 1010.5 |
| 20260507185410 | 17 | 82 | 4.8 | 4.8 | 0.00 | 0.18 | 0.18 | 84 | 1010.8 |
| 20260507184907 | 18 | 62 | 3.2 | 4.8 | 0.00 | 0.18 | 0.18 | 86 | 1010.6 |
| 20260507184405 | 18 | 34 | 0.0 | 1.6 | 0.00 | 0.18 | 0.18 | 84 | 1010.5 |
| 20260507183902 | 20 | 45 | 1.6 | 1.6 | 0.00 | 0.18 | 0.18 | 81 | 1010.2 |
| 20260507183359 | 20 | 20 | 1.6 | 3.2 | 0.00 | 0.18 | 0.18 | 82 | 1010.5 |
| 20260507182857 | 19 | 64 | 3.2 | 4.8 | 0.00 | 0.18 | 0.18 | 81 | 1010.2 |
| 20260507182352 | 20 | 11 | 1.6 | 1.6 | 0.00 | 0.18 | 0.18 | 81 | 1010.7 |
| 20260507181849 | 19 | 4 | 1.6 | 1.6 | 0.00 | 0.18 | 0.18 | 82 | 1010.4 |
| 20260507181344 | 18 | 76 | 8.0 | 9.7 | 0.00 | 0.18 | 0.18 | 86 | 1010.6 |
| 20260507180841 | 18 | 335 | 1.6 | 1.6 | 0.00 | 0.18 | 0.18 | 86 | 1010.5 |
| 20260507180338 | 18 | 77 | 3.2 | 3.2 | 0.00 | 0.18 | 0.18 | 85 | 1010.2 |
| 20260507175834 | 18 | 34 | 1.6 | 3.2 | 0.00 | 0.18 | 0.18 | 87 | 1010.0 |
| 20260507175331 | 19 | 19 | 1.6 | 1.6 | 0.00 | 0.18 | 0.18 | 88 | 1010.0 |
| 20260507174828 | 19 | 71 | 3.2 | 3.2 | 0.00 | 0.18 | 0.18 | 87 | 1010.0 |
| 20260507174326 | 20 | 74 | 3.2 | 4.8 | 0.00 | 0.18 | 0.18 | 88 | 1009.8 |
| 20260507173823 | 21 | 49 | 1.6 | 1.6 | 0.00 | 0.18 | 0.18 | 86 | 1009.7 |
| 20260507173320 | 21 | 0 | 0.0 | 1.6 | 0.00 | 0.18 | 0.18 | 83 | 1010.0 |
| 20260507172816 | 21 | 88 | 1.6 | 3.2 | 0.00 | 0.18 | 0.18 | 82 | 1009.9 |
| 20260507172313 | 22 | 106 | 0.0 | 0.0 | 0.00 | 0.18 | 0.18 | 82 | 1009.9 |
| 20260507171809 | 22 | 67 | 1.6 | 1.6 | 0.00 | 0.18 | 0.18 | 81 | 1009.9 |
| 20260507171306 | 23 | 247 | 0.0 | 0.0 | 0.00 | 0.18 | 0.18 | 76 | 1010.0 |
| 20260507170803 | 23 | 157 | 0.0 | 0.0 | 0.00 | 0.18 | 0.18 | 75 | 1010.1 |
| 20260507170300 | 23 | 275 | 0.0 | 0.0 | 0.00 | 0.18 | 0.18 | 72 | 1010.0 |
| 20260507165755 | 24 | 71 | 3.2 | 3.2 | 0.00 | 0.18 | 0.18 | 70 | 1010.2 |
| 20260507165252 | 23 | 222 | 0.0 | 0.0 | 0.00 | 0.18 | 0.18 | 75 | 1010.4 |
| 20260507164748 | 22 | 289 | 1.6 | 1.6 | 0.00 | 0.18 | 0.18 | 79 | 1010.4 |
| 20260507164245 | 23 | 118 | 1.6 | 1.6 | 0.00 | 0.18 | 0.18 | 72 | 1010.5 |
| 20260507163742 | 23 | 99 | 1.6 | 1.6 | 0.00 | 0.18 | 0.18 | 75 | 1010.4 |
| 20260507163240 | 22 | 151 | 0.0 | 0.0 | 0.00 | 0.18 | 0.18 | 77 | 1010.4 |
| 20260507162736 | 22 | 233 | 3.2 | 4.8 | 0.00 | 0.18 | 0.18 | 82 | 1010.7 |
| 20260507162232 | 21 | 228 | 1.6 | 1.6 | 0.00 | 0.18 | 0.18 | 83 | 1010.6 |
| 20260507161729 | 21 | 270 | 1.6 | 1.6 | 0.00 | 0.18 | 0.18 | 86 | 1010.5 |
| 20260507161226 | 20 | 175 | 0.0 | 1.6 | 0.00 | 0.18 | 0.18 | 88 | 1010.8 |
| 20260507160721 | 20 | 265 | 0.0 | 0.0 | 0.00 | 0.18 | 0.18 | 92 | 1010.7 |
| 20260507160218 | 20 | 52 | 1.6 | 1.6 | 0.00 | 0.18 | 0.18 | 89 | 1010.7 |
| 20260507155714 | 21 | 267 | 0.0 | 0.0 | 0.00 | 0.18 | 0.18 | 92 | 1010.5 |
| 20260507155210 | 20 | 248 | 1.6 | 1.6 | 0.00 | 0.18 | 0.18 | 87 | 1010.5 |
| 20260507154706 | 20 | 250 | 0.0 | 0.0 | 0.00 | 0.18 | 0.18 | 92 | 1010.8 |
| 20260507154205 | 19 | 115 | 1.6 | 3.2 | 0.00 | 0.18 | 0.18 | 94 | 1010.6 |
| 20260507153701 | 19 | 286 | 0.0 | 0.0 | 0.00 | 0.18 | 0.18 | 94 | 1010.8 |
| 20260507153157 | 19 | 235 | 1.6 | 3.2 | 0.00 | 0.18 | 0.18 | 89 | 1010.7 |
| 20260507152654 | 19 | 257 | 0.0 | 0.0 | 0.00 | 0.18 | 0.18 | 94 | 1011.2 |
| 20260507152150 | 18 | 254 | 0.0 | 0.0 | 0.00 | 0.18 | 0.18 | 97 | 1011.1 |
| 20260507151646 | 18 | 279 | 0.0 | 0.0 | 0.00 | 0.18 | 0.18 | 99 | 1010.8 |
| 20260507151143 | 18 | 333 | 0.0 | 0.0 | 0.00 | 0.18 | 0.18 | 99 | 1011.0 |
| 20260507150640 | 18 | 252 | 0.0 | 0.0 | 0.00 | 0.18 | 0.18 | 99 | 1010.8 |
| 20260507150136 | 18 | 273 | 0.0 | 0.0 | 0.00 | 0.18 | 0.18 | 99 | 1010.7 |
| 20260507145632 | 18 | 263 | 0.0 | 0.0 | 0.00 | 0.18 | 0.18 | 99 | 1011.2 |